Find Starlink 5570

NORAD ID: 55433 Int'l Des: 2023-014 Owner: SPXS Country: US Constellation: starlink operational
LEOCIRCULAR

Live-Position

3D-Globus wird geladen...

Über Starlink 5570

Beschreibung wird geladen...

Nächste Überflüge

Passes for default location (London). Set your location on the main map for personalized predictions.

Höhenverlauf

Loading altitude history...

Zweizeiliger Elementsatz

1 55433U 23014AU 26104.88939674 .00000399 00000-0 41226-4 0 9997
2 55433 70.0009 13.0820 0002445 273.0786 87.0093 14.98330242176490
Epoch: 14. Apr. 2026 • Age: 10 hours

Aktueller Status

Höhe 575.0 km
Geschwindigkeit 7.57 km/s
Subsatellitenpunkt -3.91°S, 126.75°W
Startdatum 31. Jan. 2023
Alter 3.2 years
Typ internet

Technische Details

Klassifizierung Payload
Masse 305.00 kg
Trockenmasse 290.00 kg
Gesamtmasse 305.00 kg
Länge 0.20 m
Durchmesser 2.80 m
Spannweite 9.00 m
Form Box + pan
Hersteller SPXS
Bus-Typ Starlink
Phasenstatus In Orbit
Besitzer/Staat SPXS/US

Most Searched